Killeen, TX

10:18 AM CST on January 16, 2017 (GMT -0600)
Hood Army Air Field

Weather History for KHLR - September, 2013

Change the Weather History Date:

Sunday, September 15, 2013

  Actual Average Record
Temperature  
Mean Temperature 84 °F -  
Max Temperature 93 °F 87 °F 100 °F (1997)
Min Temperature 75 °F 69 °F 62 °F (2003)
Cooling Degree Days 19    
Growing Degree Days 34 (Base 50)    
Moisture  
Dew Point 69 °F    
Average Humidity 62    
Maximum Humidity 87    
Minimum Humidity 42    
Precipitation  
Precipitation 0.00 in - - ()
Sea Level Pressure  
Sea Level Pressure 30.05 in    
Wind  
Wind Speed 5 mph (ESE)    
Max Wind Speed 12 mph    
Max Gust Speed -    
Visibility 10 miles    
Events      
Averages and records for this station are not official NWS values.
T = Trace of Precipitation, MM = Missing Value Source: NWS Daily Summary

Daily Weather History Graph

Daily Weather History Graph

Search for Another Location

Airport or City:

Trip Planner

Search our weather history database for the weather conditions in past years. The results will help you decide how hot, cold, wet, or windy it might be!

Date:

Astronomy

Sep. 15, 2013 Rise Set
Actual Time 7:15 AM CDT 7:36 PM CDT
Civil Twilight 6:50 AM CDT 8:00 PM CDT
Nautical Twilight 6:22 AM CDT 8:28 PM CDT
Astronomical Twilight 5:53 AM CDT 8:57 PM CDT
Moon 4:53 PM CDT (9/15) 3:07 AM CDT (9/15)
Length of Visible Light 13h 09m
Length of Day
12h 20m
Waxing Gibbous, 82% of the Moon is Illuminated
Sep 15
Waxing Gibbous
Sep 19
Full
Sep 26
Last Quarter
Oct 4
New
Oct 11
First Quarter

Hourly Weather History & Observations

Time (CDT) Temp. Heat Index Dew Point Humidity Pressure Visibility Wind Dir Wind Speed Gust Speed Precip Events Conditions
12:56 AM 82.0 °F 85.5 °F 69.1 °F 65% 30.01 in 10.0 mi South 5.8 mph - N/A   Clear
1:56 AM 81.0 °F 84.4 °F 70.0 °F 69% 30.01 in 10.0 mi SE 6.9 mph - N/A   Clear
2:56 AM 80.1 °F 83.2 °F 70.0 °F 71% 30.01 in 10.0 mi SE 4.6 mph - N/A   Clear
3:56 AM 78.1 °F - 71.1 °F 79% 30.01 in 10.0 mi Calm Calm - N/A   Clear
4:56 AM 77.0 °F - 70.0 °F 79% 30.01 in 10.0 mi ENE 3.5 mph - N/A   Clear
5:56 AM 75.9 °F - 70.0 °F 82% 30.03 in 10.0 mi Calm Calm - N/A   Clear
6:56 AM 75.0 °F - 71.1 °F 87% 30.05 in 10.0 mi East 3.5 mph - N/A   Clear
7:56 AM 77.0 °F - 72.0 °F 84% 30.06 in 10.0 mi ESE 3.5 mph - N/A   Clear
8:56 AM 79.0 °F - 72.0 °F 79% 30.09 in 10.0 mi SE 4.6 mph - N/A   Clear
9:56 AM 81.0 °F 85.2 °F 72.0 °F 74% 30.10 in 10.0 mi SE 3.5 mph - N/A   Clear
10:36 AM 82.4 °F 87.2 °F 71.6 °F 70% 30.05 in 10.0 mi SE 4.6 mph - N/A   Mostly Cloudy
10:56 AM 82.0 °F 86.7 °F 72.0 °F 71% 30.11 in 10.0 mi East 6.9 mph - N/A   Scattered Clouds
11:26 AM 84.2 °F 89.6 °F 71.6 °F 66% 30.05 in 10.0 mi ESE 6.9 mph - N/A   Mostly Cloudy
11:56 AM 86.0 °F 90.7 °F 70.0 °F 59% 30.11 in 10.0 mi East 5.8 mph - N/A   Scattered Clouds
12:03 PM 87.8 °F 92.6 °F 69.8 °F 55% 30.05 in 10.0 mi ESE 11.5 mph - N/A   Mostly Cloudy
12:11 PM 87.8 °F 92.6 °F 69.8 °F 55% 30.05 in 10.0 mi ESE 5.8 mph - N/A   Partly Cloudy
12:56 PM 88.0 °F 92.1 °F 69.1 °F 53% 30.10 in 10.0 mi SE 6.9 mph - N/A   Partly Cloudy
1:56 PM 91.0 °F 94.3 °F 66.9 °F 45% 30.08 in 10.0 mi ESE 6.9 mph - N/A   Clear
2:56 PM 93.0 °F 96.4 °F 66.9 °F 42% 30.05 in 10.0 mi SE 6.9 mph - N/A   Clear
3:56 PM 91.0 °F 93.8 °F 66.0 °F 44% 30.04 in 10.0 mi Variable 4.6 mph - N/A   Partly Cloudy
4:56 PM 91.0 °F 93.8 °F 66.0 °F 44% 30.03 in 10.0 mi East 3.5 mph - N/A   Clear
5:56 PM 91.0 °F 93.8 °F 66.0 °F 44% 30.03 in 10.0 mi Calm Calm - N/A   Clear
6:56 PM 91.0 °F 93.8 °F 66.0 °F 44% 30.03 in 10.0 mi ESE 4.6 mph - N/A   Clear
7:56 PM 88.0 °F 90.7 °F 66.9 °F 49% 30.04 in 10.0 mi East 6.9 mph - N/A   Mostly Cloudy
8:56 PM 87.1 °F 89.9 °F 66.9 °F 51% 30.06 in 10.0 mi East 4.6 mph - N/A   Mostly Cloudy
9:56 PM 84.9 °F 87.6 °F 66.9 °F 55% 30.08 in 10.0 mi ESE 4.6 mph - N/A   Clear
10:56 PM 84.0 °F 87.0 °F 68.0 °F 58% 30.09 in 10.0 mi SE 4.6 mph - N/A   Clear
11:56 PM 82.9 °F 86.5 °F 69.1 °F 63% 30.09 in 10.0 mi SE 4.6 mph - N/A   Clear